Flag for Germany Weather past 2 weeks in Reutlingen, Baden-Württemberg, Germany

Now
37 °F

Light rain. Passing clouds.


Feels Like: 32 °F
Forecast: 26 / 37 °F
Wind: 7 mph from Southwest

Location: Stuttgart-Echterdingen

Current Time: Jan 30, 2015 at 1:48:10 AM

Latest Report: Jan 30, 2015 at 1:20 AM


Visibility: N/A

Pressure: 28.74 "Hg

Humidity: 93%

Dew point: 36 °F

Location of ReutlingenLocation

Historic Weather in Reutlingen — Graph

°F

Reutlingen temperature yesterday

Maximum temperature yesterday: 39 °F (at 12:20 PM)
Minimum temperature yesterday: 34 °F (at 2:50 AM)
Average temperature yesterday: 36 °F

Past Weeks' High & Low Weather Summary

 TemperatureHumidityPressure
High48 °F (Jan 15, 2:50 PM)100% (Jan 15, 2:20 AM)30.39 "Hg (Jan 15, 2:20 AM)
Low27 °F (Jan 18, 6:20 AM)57% (Jan 15, 7:20 PM)28.77 "Hg (Jan 30, 12:20 AM)
Average35 °F88%29.94 "Hg
* Reported Jan 15 12:20 AM — Jan 30 12:50 AM, Reutlingen, Weather by CustomWeather, © 2014

Note: Actual official high and low records may vary slightly from our data, if they occured in-between our weather recording intervals... More about our weather records

Advertising

Reutlingen weather history for previous 24 hours

 ConditionsComfort  
Time TempWeatherWind HumidityBarometerVisibility
12:50 AM
Jan 30
37 °FLight rain. Partly cloudy.7 mph93%28.77 "HgN/A
12:20 AM37 °FLight rain. Passing clouds.6 mph93%28.77 "HgN/A
11:50 PM
Jan 29
37 °FLight rain. Passing clouds.5 mph93%28.80 "HgN/A
11:20 PM37 °FLight rain. Partly cloudy.5 mph93%28.82 "HgN/A
10:50 PM37 °FLight rain. Partly cloudy.5 mph93%28.82 "HgN/A
10:20 PM37 °FLight rain. Partly cloudy.5 mph93%28.85 "HgN/A
9:50 PM37 °FLight rain. Passing clouds.5 mph87%28.88 "HgN/A
9:20 PM37 °FLight rain. Passing clouds.5 mph87%28.91 "HgN/A
8:50 PM37 °FLight rain. Partly cloudy.8 mph87%28.91 "HgN/A
8:20 PM37 °FLight rain. Mostly cloudy.8 mph87%28.94 "HgN/A
7:50 PM37 °FLight rain. Mostly cloudy.6 mph87%28.97 "HgN/A
7:20 PM37 °FLight rain. Mostly cloudy.6 mph87%29.00 "HgN/A
6:50 PM37 °FLight rain. Mostly cloudy.8 mph87%29.03 "HgN/A
6:20 PM37 °FLight rain. Mostly cloudy.7 mph87%29.06 "HgN/A
5:50 PM37 °FLight rain. Mostly cloudy.7 mph87%29.09 "HgN/A
5:20 PM37 °FLight rain. Overcast.12 mph87%29.09 "HgN/A
4:50 PM37 °FLight rain. Partly sunny.10 mph87%29.12 "HgN/A
4:20 PM39 °FLight rain. Broken clouds.10 mph81%29.15 "HgN/A
3:50 PM39 °FLight rain. Broken clouds.12 mph75%29.18 "HgN/A
3:20 PM39 °FBroken clouds.9 mph75%29.21 "HgN/A
2:50 PM39 °FLight rain. Broken clouds.10 mph75%29.24 "HgN/A
2:20 PM39 °FBroken clouds.13 mph75%29.24 "HgN/A
1:50 PM39 °FPartly sunny.12 mph75%29.27 "HgN/A
1:20 PM39 °FBroken clouds.9 mph70%29.30 "HgN/A
12:50 PM39 °FBroken clouds.13 mph65%29.33 "HgN/A
12:20 PM39 °FSunny.10 mph65%29.36 "Hg10 mi
11:50 AM37 °FSunny.13 mph70%29.39 "Hg10 mi
11:20 AM36 °FSunny.10 mph70%29.42 "Hg10 mi
10:50 AM37 °FSunny.12 mph70%29.45 "Hg10 mi
10:20 AM36 °FSunny.13 mph75%29.45 "Hg10 mi
9:50 AM34 °FSunny.8 mph81%29.47 "Hg10 mi
9:20 AM34 °FSunny.10 mph81%29.47 "Hg10 mi
8:50 AM34 °FSunny.13 mph81%29.50 "Hg10 mi
8:20 AM34 °FSunny.12 mph81%29.50 "Hg10 mi
7:50 AM34 °FClear.10 mph81%29.50 "Hg10 mi
7:20 AM34 °FClear.8 mph81%29.53 "Hg10 mi
6:50 AM34 °FPassing clouds.8 mph81%29.53 "HgN/A
6:20 AM34 °FPassing clouds.6 mph81%29.53 "HgN/A
5:50 AM34 °FPassing clouds.7 mph81%29.53 "HgN/A
5:20 AM34 °FPartly cloudy.7 mph87%29.53 "HgN/A
4:50 AM34 °FPartly cloudy.6 mph87%29.53 "HgN/A
4:20 AM34 °FPassing clouds.6 mph93%29.56 "HgN/A
3:50 AM34 °FPassing clouds.8 mph87%29.56 "HgN/A
3:20 AM34 °FLight rain. Partly cloudy.14 mph93%29.56 "HgN/A
2:50 AM34 °FLight rain. Overcast.14 mph93%29.56 "HgN/A
2:20 AM36 °FPartly cloudy.8 mph87%29.56 "HgN/A
1:50 AM36 °FPassing clouds.12 mph87%29.56 "HgN/A
1:20 AM37 °FLight rain. Partly cloudy.13 mph81%29.56 "HgN/A
Weather by CustomWeather, © 2014

See weather overviewHow to use our weather pages